Content
SEND FEEDBACK

Daily
Averages
Monthly
Summary
United States of America

CHARLESTOWN, OREGON


Home > North America > United States > Oregon
Elevation: 29 feet     Latitude: 45 55N     Longitude: 119 21W

WEATHER
 
SELECT A DAY
Number of Records: 144,782;   Date Range: 1/7/99 - 9/30/14
 
SHARE

PRINT THIS DATA

[ ← Previous Day ]
WEATHER ALMANAC - JANUARY 23, 2013
[ Next Day → ]
[ °C ]   °F
Weather ElementAverageHighLow
Temperature27 °F28.9 °F (8:53 pm)25 °F (3:53 am)
Dewpoint22.8 °F26.6 °F (9:05 pm)21 °F (1:53 am)
Humidity83.8 %93 % (9:05 pm)80 % (1:35 am)
Barometer30.12 in30.23 in (1:53 am)30.02 in (2:20 pm)
Wind Speed3.6 mph5.8 mph (5:53 am)
Weather ElementAverage
Visibility7.2 mi
Wind DirectionESE (125 °)

Weather ElementTotal
Precipitation0.03 in
Heating Degree Days38.1 (Base 65)
Averaged from 30 records on January 23, 2013
WEATHER CONDITIONS BREAKOUT
WIND DIRECTION BREAKOUT
WEATHER BY HOUR - JANUARY 23, 2013
[ °C ]   °F
Local TimeTemperatureDewpointHumidityBarometerVisibilityWind DirectionWind SpeedGust SpeedPrecipitationEventsConditions
1:35 AM26.6 °F21.2 °F80 %30.20 in10.0 miNNE (20°)3.5 mphOvercast
1:53 AM26.1 °F21.0 °F81 %30.23 in10.0 miCalmOvercast
2:53 AM26.1 °F21.0 °F81 %30.22 in10.0 miNE (50°)3.5 mphOvercast
3:53 AM25.0 °F21.0 °F85 %30.19 in10.0 miNE (50°)4.6 mphOvercast
4:53 AM26.1 °F21.0 °F81 %30.19 in9.0 miNorth (10°)3.5 mphOvercast
5:53 AM25.0 °F21.0 °F85 %30.17 in10.0 miNorth (10°)5.8 mphOvercast
6:53 AM25.0 °F21.0 °F85 %30.17 in9.0 miCalmOvercast
7:53 AM26.1 °F21.0 °F81 %30.15 in9.0 miCalmOvercast
8:53 AM26.1 °F21.0 °F81 %30.13 in7.0 miNNE (30°)4.6 mphOvercast
9:45 AM26.6 °F21.2 °F80 %30.10 in6.0 miEast (80°)4.6 mphOvercast
9:53 AM26.1 °F21.9 °F84 %30.12 in6.0 miENE (60°)5.8 mphOvercast
10:53 AM27.0 °F21.9 °F81 %30.13 in6.0 miNorth (350°)3.5 mphHaze
11:53 AM26.1 °F21.9 °F84 %30.10 in6.0 miENE (60°)3.5 mph0.00 inOvercast
12:53 PM27.0 °F21.9 °F81 %30.08 in7.0 miCalm0.00 inOvercast
1:53 PM27.0 °F23.0 °F85 %30.04 in6.0 miEast (100°)4.6 mph0.00 inOvercast
2:20 PM28.4 °F23.0 °F80 %30.02 in6.0 miCalmHaze
2:53 PM27.0 °F23.0 °F85 %30.04 in6.0 miWNW (300°)3.5 mphOvercast
3:53 PM27.0 °F23.0 °F85 %30.05 in6.0 miWest (260°)4.6 mphOvercast
4:49 PM26.6 °F23.0 °F86 %30.03 in7.0 miSW (230°)4.6 mphOvercast
4:53 PM27.0 °F23.0 °F85 %30.06 in7.0 miSW (230°)5.8 mphOvercast
5:33 PM26.6 °F23.0 °F86 %30.05 in8.0 miWSW (250°)5.8 mphOvercast
5:53 PM28.0 °F23.0 °F81 %30.08 in8.0 miWest (260°)5.8 mphOvercast
6:03 PM28.4 °F23.0 °F80 %30.07 in8.0 miWSW (250°)5.8 mphOvercast
7:53 PM28.0 °F24.1 °F85 %30.11 in7.0 miSouth (170°)3.5 mph0.00 inOvercast
8:23 PM28.4 °F24.8 °F86 %30.10 in4.0 miSSE (160°)3.5 mph0.01 inRainLight Freezing Rain
8:53 PM28.9 °F25.0 °F85 %30.12 in4.0 miSSE (160°)3.5 mph0.02 inRainLight Freezing Rain
9:05 PM28.4 °F26.6 °F93 %30.11 in6.0 miSouth (180°)3.5 mph0.00 inOvercast
9:53 PM28.9 °F25.0 °F85 %30.14 in6.0 miSouth (180°)4.6 mph0.00 inOvercast
10:53 PM28.9 °F26.1 °F89 %30.16 in6.0 miSSE (150°)3.5 mph0.00 inOvercast
11:53 PM28.9 °F26.1 °F89 %30.17 in5.0 miSSE (150°)3.5 mphOvercast
Hourly data recorded from KHRI, located miles away from Charlestown, Oregon







STORIES FROM OUR PARTNERS